Location: Sebastopol
(38.4021°N, 122.8239°W)
Time: 15:40:20
(UTC+00:00)

ATLAS 3B R/B - Pass Details

Date: 29 October 2020
Orbit: 1014 x 1181 km, 63.8° (Epoch: 23 November)

Event Time Altitude Azimuth Distance (km) Brightness Sun altitude
Exits shadow 12:44:57 41° 259° (W) 1,431 2.9 -22.1°
Maximum altitude 12:46:50 54° 307° (NW) 1,224 2.7 -21.7°
Drops below altitude 10° 12:53:19 10° 24° (NNE) 2,833 5.2 -20.5°
Sets 12:56:03 0° 30° (NNE) 3,805 6.0 -19.9°
